| time (UTC) | temp F | wind direction | speed MPH | gust MPH | rain 1hr in | rain 24hr in | rain mn in | humidity % | barometer mb |
| 20260504034554 | 62 | 202 | 11.0 | 16.0 | 0.00 | 0.00 | 0.00 | 36 | 1007.7 |
| 20260504033048 | 63 | 193 | 10.0 | 14.0 | 0.00 | 0.00 | 0.00 | 35 | 1007.8 |
| 20260504031537 | 64 | 200 | 10.0 | 15.0 | 0.00 | 0.00 | 0.00 | 35 | 1007.7 |
| 20260504030044 | 65 | 199 | 10.0 | 14.0 | 0.00 | 0.00 | 0.00 | 34 | 1007.5 |
| 20260504024536 | 65 | 203 | 9.0 | 13.0 | 0.00 | 0.00 | 0.00 | 33 | 1007.5 |
| 20260504023040 | 67 | 204 | 12.0 | 18.0 | 0.00 | 0.00 | 0.00 | 32 | 1007.4 |
| 20260504021535 | 68 | 209 | 10.0 | 15.0 | 0.00 | 0.00 | 0.00 | 30 | 1007.3 |
| 20260504020038 | 69 | 221 | 12.0 | 16.0 | 0.00 | 0.00 | 0.00 | 30 | 1007.1 |
| 20260504014541 | 70 | 360 | 12.0 | 16.0 | 0.00 | 0.00 | 0.00 | 29 | 1007.1 |
| 20260504013038 | 72 | 211 | 11.0 | 19.0 | 0.00 | 0.00 | 0.00 | 25 | 1007.2 |
| 20260504011533 | 73 | 360 | 14.0 | 20.0 | 0.00 | 0.00 | 0.00 | 24 | 1007.2 |
| 20260504010034 | 74 | 248 | 15.0 | 22.0 | 0.00 | 0.00 | 0.00 | 24 | 1007.2 |
| 20260504004536 | 75 | 234 | 21.0 | 28.0 | 0.00 | 0.00 | 0.00 | 24 | 1007.2 |
| 20260504003035 | 76 | 245 | 18.0 | 29.0 | 0.00 | 0.00 | 0.00 | 21 | 1007.3 |
| 20260504001529 | 77 | 229 | 16.0 | 26.0 | 0.00 | 0.00 | 0.00 | 20 | 1007.5 |
| 20260504000029 | 77 | 209 | 17.0 | 26.0 | 0.00 | 0.00 | 0.00 | 20 | 1007.5 |
| 20260503234538 | 79 | 218 | 18.0 | 25.0 | 0.00 | 0.00 | 0.00 | 18 | 1007.5 |
| 20260503233027 | 78 | 231 | 18.0 | 26.0 | 0.00 | 0.00 | 0.00 | 18 | 1007.6 |
| 20260503231527 | 78 | 360 | 19.0 | 27.0 | 0.00 | 0.00 | 0.00 | 18 | 1007.6 |
| 20260503230027 | 78 | 211 | 18.0 | 28.0 | 0.00 | 0.00 | 0.00 | 18 | 1007.8 |
| 20260503224521 | 78 | 198 | 12.0 | 32.0 | 0.00 | 0.00 | 0.00 | 19 | 1007.9 |
| 20260503223019 | 79 | 246 | 18.0 | 28.0 | 0.00 | 0.00 | 0.00 | 18 | 1008.2 |
| 20260503221517 | 80 | 225 | 16.0 | 28.0 | 0.00 | 0.00 | 0.00 | 17 | 1008.4 |
| 20260503220014 | 78 | 237 | 20.0 | 33.0 | 0.00 | 0.00 | 0.00 | 19 | 1008.8 |
| 20260503214514 | 77 | 223 | 16.0 | 34.0 | 0.00 | 0.00 | 0.00 | 22 | 1009.1 |
| 20260503213012 | 79 | 216 | 24.0 | 35.0 | 0.00 | 0.00 | 0.00 | 20 | 1009.3 |
| 20260503211509 | 80 | 212 | 19.0 | 31.0 | 0.00 | 0.00 | 0.00 | 19 | 1009.7 |
| 20260503210006 | 79 | 248 | 15.0 | 29.0 | 0.00 | 0.00 | 0.00 | 20 | 1009.9 |
| 20260503204502 | 78 | 196 | 12.0 | 29.0 | 0.00 | 0.00 | 0.00 | 22 | 1010.3 |
| 20260503203106 | 77 | 240 | 21.0 | 38.0 | 0.00 | 0.00 | 0.00 | 22 | 1010.7 |
| 20260503201604 | 78 | 236 | 15.0 | 32.0 | 0.00 | 0.00 | 0.00 | 21 | 1011.0 |
| 20260503200059 | 75 | 234 | 14.0 | 33.0 | 0.00 | 0.00 | 0.00 | 24 | 1011.4 |
| 20260503194553 | 77 | 207 | 16.0 | 29.0 | 0.00 | 0.00 | 0.00 | 24 | 1011.6 |
| 20260503193055 | 76 | 259 | 14.0 | 30.0 | 0.00 | 0.00 | 0.00 | 23 | 1011.9 |
| 20260503191554 | 76 | 213 | 20.0 | 29.0 | 0.00 | 0.00 | 0.00 | 25 | 1012.1 |
| 20260503190045 | 75 | 230 | 13.0 | 27.0 | 0.00 | 0.00 | 0.00 | 26 | 1012.5 |
| 20260503184552 | 75 | 240 | 11.0 | 28.0 | 0.00 | 0.00 | 0.00 | 25 | 1012.7 |
| 20260503183058 | 73 | 210 | 15.0 | 29.0 | 0.00 | 0.00 | 0.00 | 26 | 1013.0 |
| 20260503181538 | 73 | 228 | 21.0 | 32.0 | 0.00 | 0.00 | 0.00 | 26 | 1013.3 |
| 20260503180041 | 74 | 239 | 18.0 | 24.0 | 0.00 | 0.00 | 0.00 | 25 | 1013.6 |
| 20260503174534 | 72 | 360 | 16.0 | 28.0 | 0.00 | 0.00 | 0.00 | 29 | 1013.8 |
| 20260503173044 | 72 | 190 | 17.0 | 26.0 | 0.00 | 0.00 | 0.00 | 29 | 1014.2 |
| 20260503171526 | 71 | 360 | 19.0 | 25.0 | 0.00 | 0.00 | 0.00 | 29 | 1014.4 |
| 20260503081510 | 52 | 238 | 17.0 | 25.0 | 0.00 | 0.00 | 0.00 | 58 | 1016.7 |
| 20260503071616 | 55 | 238 | 18.0 | 24.0 | 0.00 | 0.00 | 0.00 | 50 | 1017.1 |
| 20260503070107 | 53 | 268 | 15.0 | 21.0 | 0.00 | 0.00 | 0.00 | 48 | 1017.2 |
| 20260503054545 | 55 | 229 | 13.0 | 17.0 | 0.00 | 0.00 | 0.00 | 42 | 1017.4 |
| 20260503053044 | 55 | 236 | 15.0 | 18.0 | 0.00 | 0.00 | 0.00 | 40 | 1017.4 |
| 20260503051542 | 55 | 360 | 13.0 | 17.0 | 0.00 | 0.00 | 0.00 | 40 | 1017.5 |
| 20260503050038 | 56 | 213 | 16.0 | 18.0 | 0.00 | 0.00 | 0.00 | 36 | 1017.6 |
| 20260503044538 | 56 | 360 | 14.0 | 17.0 | 0.00 | 0.00 | 0.00 | 35 | 1017.5 |
| 20260503043042 | 57 | 211 | 11.0 | 16.0 | 0.00 | 0.00 | 0.00 | 34 | 1017.5 |
| 20260503041537 | 57 | 212 | 9.0 | 14.0 | 0.00 | 0.00 | 0.00 | 33 | 1017.4 |
| 20260503040046 | 59 | 360 | 9.0 | 13.0 | 0.00 | 0.00 | 0.00 | 31 | 1017.5 |